Location: Stara Lesna
(49.1528°N, 20.2911°E)
Time: 18:54:36
(UTC+02:00)

Helios 1B rocket - Pass Details

Date: 13 July 2020
Orbit: 574 x 584 km, 98.1° (Epoch: 11 August)

Event Time Altitude Azimuth Distance (km) Brightness Sun altitude
Rises 02:20:45 0° 3° (N) 2,813 7.3 -15.9°
Reaches altitude 10° 02:23:12 10° 350° (N) 1,906 5.9 -15.7°
Maximum altitude 02:26:32 24° 296° (WNW) 1,212 4.1 -15.5°
Enters shadow 02:28:45 16° 254° (WSW) 1,548 4.2 -15.4°
